STARLINK-11288, 61002

Orbit data source: Space-Track

STARLINK-11288, 61002 is a payload satellite owned by SpaceX/Seattle (US) in LEO that was launched on Thu, 05 Sep 2024 UTC via an FALCON 9 launch vehicle from the Air Force Eastern Test Range (AFETR). Payload-class satellites include a variety of spacecraft equipped with specific instruments for various scientific and technological missions. These include communications satellites like Starlink; space stations such as the ISS; scientific satellites like the Hubble; Earth observation satellites from companies like Planet Labs, Umbra, and HawkEye 360; GPS; miniature CubeSats for education and research; and military/defense satellites.

Loading next visibility...
Identifier
61002, 2024-158N
Orbit
LEO
Last TLE update
4 hours ago
Origin
Manufacturer
SpaceX/Seattle
Mission
Operational Commercial Communications
Bus & Motor
STARLINK V2M, Unknown motor
Mass
730 kg wet, ~700 kg dry
Launch date (UTC)
2024-09-05 (9 months ago)
Launch vehicle
FALCON 9
Launch site
Air Force Eastern Test Range (AFETR)
Object type
Payload
Rocket body
Debris
Shape & HBR
Box + 2 Pan, 29 m
Radar Cross Section
36.964 m², Large (>1 m²)

Expand to show TLE details & history

TLE from 4 hours ago
0 STARLINK-11288
1 61002U 24158N   25163.45736187  .00002648  00000-0  26695-4 0  9999
2 61002  53.1590 173.2572 0001634 108.9365 251.1830 15.69726579 45160
Epoch: 2025-06-12T10:58Z
TLE epoch observation values (Epoch: 2025-06-12T10:58:36.065Z)
Latitude
-0.00004°
Longitude
107.58166°
Altitude
360.95 km
Speed
7.694 km/s
True Right ascension
11h 33m 01s
True Declination
0° 00' 00"
Sunlit
Object was in daylight at epoch
Visualization orbit readout
Latitude
-45.73923°
Longitude
-23.39616°
Altitude
375.954 km
Speed
7.683 km/s
Apparent Right ascension
08h 32m 11s
Apparent Declination
-79° 10' 17"
Sunlit
Object is in daylight
Visualization observer readout
Local Sidereal Time
01:28:08
Azimuth
165.922° S
Elevation
-42.066°
Doppler factor
1
Orbital elements
Apogee altitude
361.041 km
Perigee altitude
358.839 km
Semi-major axis
6,738.077 km
Eccentricity
0.00016
Inclination
53.159°
RAAN
173.2572°
Arg. of periapsis
108.9365°
True anomaly
Unknown
Mean anomaly
251.183°
Eccentric anomaly
Unknown
Mean motion
3.92409 °/min
Orbital period
91.74 mins
BSTAR
0.000026695
Loading maneuver chart data...
Loading SW <> Apogee altitude chart data...
Loading historical data...
Loading historical data...
Loading historical data...
Loading historical data...
Loading historical data...
Loading historical data...
Loading historical data...

STARLINK-11288 Visibility forecast

Observer location: undefined°, undefined°

Span
Click to sort rows by Start time (UTC) header in descending order
Start Az.
Max El. time (UTC)
Max El. Az.
Max El.
End time (UTC)
End Az.
4 mins2025-06-13 10:24:50.913Z297.381° NW2025-06-13 10:26:50.913Z200.482° SSW39.687°2025-06-13 10:28:50.913Z145.841° SSE
|